Content
SEND FEEDBACK

Daily
Averages
Monthly
Summary
United States of America

SOUTH LAKE TAHOE, CALIFORNIA


Home > North America > United States > California
Elevation: 6263 feet     Latitude: 38 53N     Longitude: 119 59W

WEATHER
 
SELECT A DAY
Number of Records: 177,028;   Date Range: 1/1/95 - 10/22/14
 
SHARE

PRINT THIS DATA

[ ← Previous Day ]
WEATHER ALMANAC - MAY 23, 2013
[ Next Day → ]
[ °C ]   °F
Weather ElementAverageHighLow
Temperature41.5 °F53.1 °F (2:53 pm)27 °F (3:53 am)
Dewpoint18.4 °F26.1 °F (8:53 pm)8.1 °F (11:53 am)
Humidity44 %70 % (11:53 pm)19 % (11:53 am)
Barometer29.89 in30.01 in (10:53 pm)29.80 in (4:53 am)
Wind Speed4.8 mph13.8 mph (1:53 pm)
Wind Gust26.5 mph (12:53 pm)
Weather ElementAverage
Visibility10 mi
Wind DirectionE (92.6 °)

Weather ElementTotal
Precipitation---
Heating Degree Days25 (Base 65)
Averaged from 23 records on May 23, 2013
WEATHER CONDITIONS BREAKOUT
WIND DIRECTION BREAKOUT
WEATHER BY HOUR - MAY 23, 2013
[ °C ]   °F
Local TimeTemperatureDewpointHumidityBarometerVisibilityWind DirectionWind SpeedGust SpeedPrecipitationEventsConditions
1:53 AM28.9 °F19.9 °F69 %29.81 in10.0 miSouth (170°)3.5 mphClear
2:53 AM28.0 °F19.0 °F69 %29.81 in10.0 miSouth (180°)4.6 mphClear
3:53 AM27.0 °F18.0 °F69 %29.81 in10.0 miSouth (190°)3.5 mphClear
4:53 AM27.0 °F18.0 °F69 %29.80 in10.0 miSSW (200°)4.6 mphClear
5:53 AM27.0 °F17.1 °F66 %29.83 in10.0 miCalmClear
6:53 AM30.9 °F19.0 °F61 %29.82 in10.0 miCalmClear
7:53 AM39.9 °F15.1 °F36 %29.83 in10.0 miSouth (190°)9.2 mph17.3 mphClear
8:53 AM42.1 °F14.0 °F32 %29.85 in10.0 miSouth (190°)11.5 mphOvercast
9:53 AM45.0 °F12.0 °F26 %29.84 in10.0 miSouth (180°)9.2 mph20.7 mphClear
10:53 AM46.9 °F10.0 °F22 %29.86 in10.0 miVariable6.9 mph17.3 mphClear
11:53 AM48.9 °F8.1 °F19 %29.88 in10.0 miVariable6.9 mph24.2 mphClear
12:53 PM52.0 °F10.0 °F19 %29.88 in10.0 miSSW (200°)12.7 mph26.5 mphClear
1:53 PM52.0 °F16.0 °F24 %29.90 in10.0 miSouth (190°)13.8 mph18.4 mphClear
2:53 PM53.1 °F18.0 °F25 %29.91 in10.0 miVariable4.6 mphClear
3:53 PM53.1 °F19.9 °F27 %29.94 in10.0 miSSW (200°)10.4 mph17.3 mphClear
4:53 PM52.0 °F18.0 °F26 %29.95 in10.0 miSSW (210°)5.8 mph16.1 mphClear
5:53 PM53.1 °F19.9 °F27 %29.96 in10.0 miCalmClear
6:53 PM50.0 °F23.0 °F35 %29.95 in10.0 miCalmClear
7:53 PM46.0 °F25.0 °F44 %29.96 in10.0 miNNE (30°)3.5 mphClear
8:53 PM42.1 °F26.1 °F53 %29.98 in10.0 miCalmClear
9:53 PM39.9 °F26.1 °F58 %30.00 in10.0 miCalmClear
10:53 PM36.0 °F26.1 °F67 %30.01 in10.0 miCalmClear
11:53 PM34.0 °F25.0 °F70 %30.00 in10.0 miCalmClear
Hourly data recorded from KTVL, located miles away from South Lake Tahoe, California







STORIES FROM OUR PARTNERS